FW7263 Weather Reports


Display with metric or nautical units.
time (UTC)temp
F
wind
direction
speed
MPH
gust
MPH
rain 1hr
in
rain 24hr
in
rain mn
in
humidity
%
barometer
mb
20260504070200 41 192 0.0 0.0 0.00 0.00 0.00 87 1015.1
20260504060120 41 192 0.0 0.0 0.00 0.00 0.00 82 1014.6
20260504050548 41 191 0.0 0.0 0.00 0.00 0.00 79 1014.8
20260504045542 41 191 0.0 0.0 0.00 0.00 0.00 79 1014.8
20260504045037 41 191 0.0 0.0 0.00 0.00 0.00 79 1014.6
20260504044535 41 191 0.0 0.0 0.00 0.00 0.00 79 1014.4
20260504044032 41 191 0.0 0.0 0.00 0.00 0.00 76 1014.7
20260504043529 41 191 0.0 0.0 0.00 0.00 0.00 76 1014.8
20260504043026 41 191 0.0 0.0 0.00 0.00 0.00 76 1014.6
20260504042523 41 191 0.0 0.0 0.00 0.00 0.00 76 1014.7
20260504042020 41 191 0.0 0.0 0.00 0.00 0.00 76 1014.7
20260504041516 41 191 0.0 0.0 0.00 0.00 0.00 76 1014.5
20260504041012 41 191 0.0 0.0 0.00 0.00 0.00 75 1014.5
20260504040510 41 191 0.0 0.0 0.00 0.00 0.00 75 1014.7
20260504040006 41 191 0.0 1.0 0.00 0.00 0.00 75 1014.5
20260504035503 41 191 0.0 0.0 0.00 0.00 0.00 75 1014.6
20260504034959 41 191 0.0 0.0 0.00 0.00 0.00 75 1014.7
20260504034457 41 191 0.0 0.0 0.00 0.00 0.00 75 1014.3
20260504033954 41 191 0.0 0.0 0.00 0.00 0.00 75 1014.5
20260504033452 41 191 0.0 0.0 0.00 0.00 0.00 75 1014.1
20260504032949 41 191 0.0 0.0 0.00 0.00 0.00 75 1014.3
20260504032446 42 191 0.0 0.0 0.00 0.00 0.00 75 1014.3
20260504031942 42 191 0.0 0.0 0.00 0.00 0.00 75 1014.3
20260504031439 42 191 0.0 0.0 0.00 0.00 0.00 75 1014.2
20260504030936 42 191 0.0 0.0 0.00 0.00 0.00 74 1014.1
20260504030433 43 191 0.0 0.0 0.00 0.00 0.00 74 1014.4
20260504025929 43 191 0.0 0.0 0.00 0.00 0.00 74 1014.2
20260504025426 43 191 0.0 0.0 0.00 0.00 0.00 74 1014.2
20260504024923 43 191 0.0 0.0 0.00 0.00 0.00 74 1014.3
20260504024420 43 191 0.0 0.0 0.00 0.00 0.00 74 1014.4
20260504023917 43 191 0.0 0.0 0.00 0.00 0.00 73 1014.3
20260504023413 43 191 0.0 0.0 0.00 0.00 0.00 71 1014.2
20260504022909 43 191 0.0 0.0 0.00 0.00 0.00 72 1014.2
20260504022406 44 191 0.0 0.0 0.00 0.00 0.00 71 1014.2
20260504021902 44 191 0.0 0.0 0.00 0.00 0.00 70 1014.0
20260504021400 44 191 0.0 0.0 0.00 0.00 0.00 70 1014.1
20260504020857 44 191 0.0 0.0 0.00 0.00 0.00 69 1014.2
20260504020353 44 191 0.0 0.0 0.00 0.00 0.00 70 1014.3
20260504015849 44 191 0.0 0.0 0.00 0.00 0.00 68 1014.2
20260504015346 44 191 0.0 0.0 0.00 0.00 0.00 68 1014.3
20260504014842 44 191 0.0 0.0 0.00 0.00 0.00 68 1014.1
20260504014338 45 191 0.0 0.0 0.00 0.00 0.00 67 1014.2
20260504013836 45 191 0.0 0.0 0.00 0.00 0.00 64 1014.1
20260504013333 46 191 0.0 0.0 0.00 0.00 0.00 64 1014.1
20260504012830 46 191 0.0 0.0 0.00 0.00 0.00 64 1014.1
20260504012328 46 191 0.0 0.0 0.00 0.00 0.00 62 1014.0
20260504011825 46 191 0.0 0.0 0.00 0.00 0.00 62 1013.9
20260504011321 46 191 0.0 0.0 0.00 0.00 0.00 62 1013.9
20260504010817 46 191 0.0 0.0 0.00 0.00 0.00 61 1013.6
20260504010313 46 191 0.0 0.0 0.00 0.00 0.00 65 1013.6
20260504005810 47 191 0.0 0.0 0.00 0.00 0.00 64 1013.5
20260504005307 48 191 0.0 0.0 0.00 0.00 0.00 60 1013.3
20260504004804 48 191 0.0 0.0 0.00 0.00 0.00 60 1013.4
20260504004302 48 191 0.0 0.0 0.00 0.00 0.00 60 1013.2
20260504003758 48 191 0.0 0.0 0.00 0.00 0.00 60 1013.2
20260504003255 49 191 0.0 0.0 0.00 0.00 0.00 59 1013.1
20260504002751 49 191 0.0 0.0 0.00 0.00 0.00 58 1013.2
20260504002249 50 191 0.0 0.0 0.00 0.00 0.00 58 1013.1
20260504001746 50 191 0.0 0.0 0.00 0.00 0.00 54 1013.0
20260504001243 51 191 0.0 0.0 0.00 0.00 0.00 54 1012.9
20260504000740 51 191 0.0 0.0 0.00 0.00 0.00 53 1012.9
20260504000237 52 191 0.0 0.0 0.00 0.00 0.00 53 1012.9
20260503235735 53 191 0.0 0.0 0.00 0.00 0.00 50 1013.0
20260503235232 53 197 0.0 1.0 0.00 0.00 0.00 50 1013.0
20260503234730 54 190 0.0 0.0 0.00 0.00 0.00 45 1012.8
20260503234227 55 190 0.0 0.0 0.00 0.00 0.00 45 1012.6
20260503233725 56 187 0.0 0.0 0.00 0.00 0.00 43 1012.7
20260503233220 56 187 0.0 0.0 0.00 0.00 0.00 43 1012.5
20260503232717 56 187 0.0 0.0 0.00 0.00 0.00 43 1012.7
20260503232214 56 179 2.0 2.0 0.00 0.00 0.00 42 1012.6
20260503231713 57 194 0.0 0.0 0.00 0.00 0.00 41 1012.5
20260503231209 57 208 2.0 2.0 0.00 0.00 0.00 42 1012.5
20260503230705 57 202 0.0 1.0 0.00 0.00 0.00 43 1012.4
20260503230202 57 197 0.0 0.0 0.00 0.00 0.00 43 1012.4
20260503225659 57 192 1.0 2.0 0.00 0.00 0.00 42 1012.5
20260503225154 58 189 0.0 0.0 0.00 0.00 0.00 41 1012.4
20260503224652 58 196 1.0 1.0 0.00 0.00 0.00 38 1012.4
20260503224149 58 202 1.0 2.0 0.00 0.00 0.00 39 1012.5
20260503223647 59 199 1.0 2.0 0.00 0.00 0.00 39 1012.5
20260503223143 58 195 1.0 2.0 0.00 0.00 0.00 39 1012.4
20260503222640 59 191 0.0 1.0 0.00 0.00 0.00 39 1012.6
20260503222138 59 200 6.0 10.0 0.00 0.00 0.00 38 1012.3
20260503221636 59 199 1.0 3.0 0.00 0.00 0.00 38 1012.4
20260503221133 59 200 0.0 2.0 0.00 0.00 0.00 37 1012.6
20260503220630 59 199 0.0 1.0 0.00 0.00 0.00 37 1012.4
20260503220127 59 206 1.0 2.0 0.00 0.00 0.00 37 1012.4
20260503215624 59 201 1.0 3.0 0.00 0.00 0.00 37 1012.3
20260503215120 59 193 2.0 2.0 0.00 0.00 0.00 36 1012.4
20260503214619 60 189 1.0 2.0 0.00 0.00 0.00 36 1012.3
20260503214115 61 203 2.0 3.0 0.00 0.00 0.00 35 1012.3
20260503213614 61 202 2.0 5.0 0.00 0.00 0.00 35 1012.1
20260503213110 61 195 1.0 1.0 0.00 0.00 0.00 34 1011.9
20260503212608 61 202 2.0 8.0 0.00 0.00 0.00 35 1012.1
20260503212105 62 195 3.0 3.0 0.00 0.00 0.00 34 1012.1
20260503211603 63 243 5.0 6.0 0.00 0.00 0.00 34 1012.0
20260503211057 62 200 2.0 3.0 0.00 0.00 0.00 34 1012.2
20260503210554 62 230 4.0 6.0 0.00 0.00 0.00 33 1012.2
20260503210050 63 201 1.0 2.0 0.00 0.00 0.00 34 1012.1
20260503205547 63 195 3.0 3.0 0.00 0.00 0.00 33 1012.2
20260503205044 63 203 1.0 6.0 0.00 0.00 0.00 35 1012.1
20260503204541 63 224 2.0 3.0 0.00 0.00 0.00 35 1012.2
20260503204038 63 169 2.0 3.0 0.00 0.00 0.00 34 1012.2
20260503203535 62 118 2.0 7.0 0.00 0.00 0.00 33 1012.4
20260503203032 62 198 1.0 5.0 0.00 0.00 0.00 33 1012.2
20260503202530 63 209 3.0 3.0 0.00 0.00 0.00 33 1012.3
20260503202027 62 196 2.0 2.0 0.00 0.00 0.00 33 1012.4
20260503201525 63 207 2.0 5.0 0.00 0.00 0.00 33 1012.2
20260503201022 63 181 6.0 9.0 0.00 0.00 0.00 33 1012.2
20260503200518 63 198 2.0 3.0 0.00 0.00 0.00 34 1012.1
20260503200015 63 173 1.0 2.0 0.00 0.00 0.00 36 1012.0
20260503195513 62 267 4.0 5.0 0.00 0.00 0.00 34 1012.2
20260503195009 62 115 1.0 2.0 0.00 0.00 0.00 33 1012.2
20260503194507 62 198 2.0 5.0 0.00 0.00 0.00 34 1012.3
20260503194006 62 217 3.0 5.0 0.00 0.00 0.00 34 1012.4
20260503193503 62 221 2.0 8.0 0.00 0.00 0.00 33 1012.3
20260503192958 61 199 2.0 6.0 0.00 0.00 0.00 34 1012.3
20260503192455 62 195 5.0 14.0 0.00 0.00 0.00 35 1012.5
20260503191950 63 231 2.0 3.0 0.00 0.00 0.00 34 1012.4
20260503191448 61 218 5.0 7.0 0.00 0.00 0.00 35 1012.2
20260503190944 60 208 3.0 8.0 0.00 0.00 0.00 36 1012.6
20260503190442 61 228 3.0 9.0 0.00 0.00 0.00 37 1012.4
20260503185938 62 246 4.0 6.0 0.00 0.00 0.00 35 1012.8
20260503185435 61 192 0.0 2.0 0.00 0.00 0.00 36 1012.6
20260503184934 61 206 2.0 3.0 0.00 0.00 0.00 38 1012.6
20260503184431 62 202 1.0 6.0 0.00 0.00 0.00 37 1012.6
20260503183927 61 199 4.0 6.0 0.00 0.00 0.00 37 1013.0
20260503183424 59 212 1.0 3.0 0.00 0.00 0.00 38 1013.0
20260503182921 60 239 3.0 7.0 0.00 0.00 0.00 38 1012.9
20260503182420 59 198 0.0 3.0 0.00 0.00 0.00 40 1012.8
20260503181917 60 205 2.0 3.0 0.00 0.00 0.00 40 1012.9
20260503181414 58 202 2.0 5.0 0.00 0.00 0.00 41 1013.2
20260503180910 59 199 1.0 7.0 0.00 0.00 0.00 41 1013.2
20260503180408 59 200 0.0 2.0 0.00 0.00 0.00 41 1012.9
20260503175904 58 216 3.0 3.0 0.00 0.00 0.00 41 1012.8
20260503175403 59 247 3.0 6.0 0.00 0.00 0.00 40 1013.2
20260503174858 59 207 2.0 5.0 0.00 0.00 0.00 41 1012.9
20260503174356 58 233 3.0 5.0 0.00 0.00 0.00 42 1012.8
20260503173851 57 238 1.0 6.0 0.00 0.00 0.00 41 1012.8
20260503173348 59 190 3.0 5.0 0.00 0.00 0.00 40 1013.0
20260503172844 58 198 1.0 3.0 0.00 0.00 0.00 45 1012.8
20260503172342 58 200 2.0 3.0 0.00 0.00 0.00 42 1013.1
20260503171838 59 207 3.0 5.0 0.00 0.00 0.00 41 1013.2
20260503171335 59 197 1.0 2.0 0.00 0.00 0.00 42 1013.0
20260503170832 57 327 4.0 5.0 0.00 0.00 0.00 39 1013.1
20260503170328 57 221 1.0 3.0 0.00 0.00 0.00 44 1013.2
20260503150721 53 163 7.0 9.0 0.00 0.00 0.00 48 1013.5
20260503150217 53 219 2.0 2.0 0.00 0.00 0.00 50 1013.3
20260503140141 53 197 1.0 2.0 0.00 0.00 0.00 54 1013.3
20260503131111 52 221 3.0 3.0 0.00 0.00 0.00 56 1013.1
20260503130609 53 27 3.0 5.0 0.00 0.00 0.00 55 1013.2
20260503130106 50 207 1.0 1.0 0.00 0.00 0.00 59 1013.0
20260503110458 44 195 0.0 1.0 0.00 0.00 0.00 82 1012.4
20260503090350 38 195 0.0 0.0 0.00 0.00 0.00 88 1010.2
20260503081312 39 195 0.0 0.0 0.00 0.00 0.00 84 1010.3
20260503080808 39 195 0.0 0.0 0.00 0.00 0.00 84 1010.3
20260503080305 39 195 0.0 0.0 0.00 0.00 0.00 84 1010.3